Temp_Advection
nan nan nan nan nan nan nan nan nan nan nan nan nan nan nan nan nan nan nan nan nan nan nan nan nan nan nan nan nan nan nan nan nan nan nan nan nan nan nan nan nan nan nan nan nan nan nan nan nan
nan 0 -0 -0 0 0 -0 -0 -0 -0 -0 -0 -1 -0 -0 -0 0 0 0 0 0 0 0 0 0 0 0 -0 -0 -0 -0 0 0 -0 -0 0 -0 -0 0 0 -0 -0 0 0 -0 -0 -0 -0 nan
nan 0 0 0 0 -0 -0 -0 -0 -0 0 -0 -0 -0 -0 -0 0 0 -0 -0 0 0 0 0 0 0 -0 -0 -0 -0 -0 -0 0 0 -0 -0 0 -0 -0 -0 -0 -0 0 0 -0 -0 -0 -0 nan
nan 0 -0 0 -0 -0 -0 -0 -0 -1 -0 -0 -1 -1 -0 -0 0 0 0 -0 -0 -0 0 -0 0 0 -0 -0 -0 -0 -0 -0 -0 0 -0 -0 0 0 -0 -0 -0 -0 0 0 -0 0 -0 -0 nan
nan -0 0 0 -0 -0 -0 -0 -0 -0 -0 -0 -0 -0 0 -0 -0 0 0 0 0 -0 -0 0 0 0 0 -0 -0 -0 0 -0 -0 -0 0 -0 0 0 -0 -0 -0 -0 -0 0 0 -0 -0 -0 nan
nan -0 0 0 0 -0 -0 -0 -0 -0 -0 -0 -0 -0 0 0 0 0 0 0 0 0 -0 -0 0 0 0 0 -0 -0 -0 -0 -0 -0 -0 -0 -0 0 0 -0 -0 -0 -0 -0 0 0 0 -0 nan
nan 0 -0 -0 0 0 -0 -0 -0 -0 -0 -0 -1 -0 0 0 0 0 0 -0 -0 0 0 0 -0 0 0 0 0 -0 -0 0 -0 -0 -0 -0 -0 -0 -0 0 0 0 0 -0 -0 0 0 -0 nan
nan 0 0 0 -0 0 0 -0 -0 -0 -0 -0 -1 -1 -0 -0 0 0 0 0 -0 -0 0 0 -0 -0 -0 -0 -0 -0 -0 -0 -0 -0 -0 -0 0 0 0 0 0 0 0 0 0 0 0 0 nan
nan 0 0 0 0 0 -0 -0 -0 -0 -0 0 0 -0 -1 -0 -0 -0 -0 0 0 0 -0 0 -0 -0 -0 -0 -0 0 -0 0 0 0 0 -0 -0 0 0 0 0 0 0 0 -0 0 0 0 nan
nan 0 0 -1 -0 -0 -0 -0 -0 -0 -0 -0 1 1 0 -0 -0 -0 -0 -0 -0 0 0 0 0 0 0 0 -0 -0 -0 -0 -0 -0 -0 -0 0 0 0 0 0 0 -0 -0 -0 -0 0 0 nan
nan 0 -0 -0 -1 0 -0 -0 -0 -1 0 -0 0 0 -0 -0 -0 -0 -0 -0 -0 -0 -0 0 0 0 0 0 0 0 -0 0 -0 0 0 0 0 0 0 -0 -0 -0 -0 -0 0 -0 -0 -0 nan
nan 0 0 -1 -0 0 -0 -0 -0 -0 -0 -0 -1 -0 -1 -0 -0 -0 -0 0 -0 -0 -0 -0 -0 -0 0 0 0 -0 0 0 0 0 0 0 0 0 0 0 -0 -0 -0 0 0 0 -0 -0 nan
nan -0 0 -0 -0 -0 -0 -0 -0 -0 -0 0 -1 -0 -0 -0 -0 -0 0 -0 -0 0 0 -0 -0 -0 -0 -0 -0 -0 -0 0 0 0 0 0 0 0 0 0 0 -0 0 0 0 -0 -0 0 nan
nan -0 -0 -0 -1 -0 -0 -0 -0 -0 -0 -1 -0 -1 -0 -0 -0 -1 -0 0 0 0 -0 -0 0 0 0 -0 -0 -0 0 0 0 0 0 0 0 0 0 0 0 -0 -0 -0 -0 -0 -0 0 nan
nan -0 -0 0 -0 -0 -0 -0 -0 -0 0 -0 0 -0 -0 -0 -0 -0 -1 -0 0 -0 -0 -0 0 0 -0 0 0 0 -0 -0 0 0 0 0 0 0 0 0 -0 -0 -0 -0 -0 -0 -0 -0 nan
nan 0 -0 0 -0 -0 -0 -0 -0 -0 0 0 -0 -0 -0 -0 -1 -0 -1 -0 -0 -0 -0 -0 -0 -0 -0 -0 -0 -0 -0 0 0 0 0 0 0 0 -0 0 -0 -0 -0 -0 -0 -0 -0 -0 nan
nan -0 -0 -0 0 -0 -0 -0 -0 -0 -0 -1 -1 -1 -1 -1 -1 -1 -0 -0 -0 -0 -0 -0 0 -0 -0 -0 -0 -0 -0 0 0 0 -0 -0 -0 0 0 0 -0 -0 -0 -0 0 -0 0 0 nan
nan -0 0 -0 -0 -0 -0 -0 -0 -1 -1 -1 -1 -1 -1 -1 -1 -0 -0 -0 -0 -0 -0 -0 -0 -0 -0 -0 -0 -0 0 -0 -0 0 0 0 -0 0 -0 -0 -0 0 -0 -0 -0 0 0 0 nan
nan -0 -0 0 -0 0 -0 -0 -0 -1 -0 -0 -1 -1 -1 -1 -1 -0 -0 -0 -0 -0 -0 0 0 0 0 -0 -0 -0 -0 -0 -0 0 0 0 0 0 -0 -0 0 0 -0 0 0 0 0 0 nan
nan 0 0 -0 0 0 0 0 0 -0 -1 -1 -1 -1 -1 -1 -0 -1 -0 -0 -0 -0 0 0 -0 0 -0 -0 -0 -0 -0 -0 0 0 0 0 0 0 0 -0 -0 0 -0 -0 -0 -0 -0 -0 nan
nan -0 -0 0 -0 -0 -0 -0 0 0 -0 -0 -1 -1 -1 -0 -1 -0 -0 -0 -0 0 0 -0 -0 -0 -0 -0 -0 0 0 0 -0 -0 0 0 0 0 0 0 -0 -0 -0 -0 -0 -0 -0 -0 nan
nan -1 -0 -0 -0 0 -0 0 -0 0 0 -0 -0 -1 -1 -1 -0 -0 -0 -0 -0 -0 -0 -0 -0 -0 -0 -0 0 0 0 -0 -0 -0 0 0 0 0 0 0 -0 -0 -0 -0 -0 -0 -0 0 nan
nan 0 0 -0 -0 -0 -0 0 -0 0 -0 -0 -1 -1 -1 -1 -0 -0 -0 -1 -0 -0 0 0 -0 -0 0 0 0 0 -0 -0 0 -0 -0 0 0 0 0 0 0 -0 -0 -0 -0 -0 0 -0 nan
nan -1 -1 -1 -0 -0 -0 0 -0 -0 -1 -0 -0 -1 -1 -1 -1 -0 -0 -0 0 0 1 -0 -0 0 0 0 0 0 -0 0 -0 -0 -0 0 0 -0 0 0 0 -0 -0 -0 0 0 0 -0 nan
nan -1 -0 0 -0 -0 0 0 -1 -0 -0 -0 -1 -1 -1 -1 -0 -0 -0 0 0 0 -0 -0 0 0 0 0 -0 -0 0 0 0 -0 -0 0 0 0 0 0 0 0 0 -0 0 0 0 0 nan
nan -0 -0 0 0 0 -0 -0 -0 0 -0 -1 -0 1 0 0 -0 0 -0 0 1 0 0 0 0 0 -0 -0 -0 0 0 0 0 0 0 -0 -0 0 0 0 0 0 0 0 0 -0 -0 0 nan
nan 0 -0 -0 0 -0 -0 -0 -1 0 0 -0 1 1 1 1 0 0 -0 0 0 0 -0 -0 -0 -0 -0 -0 0 0 0 0 -0 0 0 0 0 0 0 0 -0 0 0 0 0 0 0 0 nan
nan -0 -0 0 0 0 0 0 -0 -0 0 0 0 0 0 0 -0 -0 -0 -0 -0 0 -0 -0 -0 -0 -0 0 0 0 0 0 0 0 0 0 0 0 0 0 0 -0 -0 0 0 0 0 0 nan
nan 0 -0 -0 0 0 0 0 -1 -0 0 0 -0 -0 -0 -0 -0 0 0 0 0 -0 -1 -0 -0 0 0 0 0 0 0 0 0 -0 0 0 0 0 0 0 0 0 0 0 0 0 0 0 nan
nan nan nan nan nan nan nan nan nan nan nan nan nan nan nan nan nan nan nan nan nan nan nan nan nan nan nan nan nan nan nan nan nan nan nan nan nan nan nan nan nan nan nan nan nan nan nan nan nan
Wind_Speed
2 4 9 6 2 4 2 3 3 4 5 8 19 5 7 5 1 3 25 17 19 20 17 13 11 11 11 12 12 12 12 12 13 14 14 13 14 14 13 13 14 15 14 12 12 12 12 13 14
3 4 8 3 3 3 2 1 4 4 10 22 17 14 6 3 6 19 18 20 18 18 17 14 13 12 12 13 12 12 11 11 12 13 14 14 14 13 13 13 13 13 13 12 12 12 13 12 14
3 4 3 1 2 3 4 3 3 6 17 8 6 12 4 4 15 22 23 22 19 17 15 15 14 14 14 13 13 11 10 11 12 11 12 14 14 13 12 11 11 10 10 12 11 11 12 13 14
5 1 4 2 2 1 7 7 9 19 6 4 16 9 7 11 15 21 22 21 19 17 16 15 14 14 13 13 12 11 12 12 12 11 12 12 12 11 11 10 9 10 9 10 11 10 11 12 15
5 0 2 0 2 2 5 14 16 11 6 6 2 4 13 11 18 20 21 22 18 16 17 16 15 13 13 13 12 11 11 10 10 11 10 10 10 9 8 8 8 8 8 10 11 10 11 13 12
3 1 2 2 3 4 7 17 19 7 7 8 10 14 7 21 21 17 18 18 14 10 15 15 15 13 13 12 11 10 9 8 7 8 9 9 8 8 5 5 6 7 8 9 8 7 10 12 10
1 2 1 4 3 5 6 17 11 12 8 3 21 5 13 24 19 19 17 15 12 11 13 16 15 14 13 11 10 7 6 5 5 6 6 5 7 9 6 4 5 7 8 7 8 8 9 11 10
0 2 4 4 1 2 13 9 14 9 5 17 16 7 12 27 21 19 16 16 13 12 12 14 14 12 11 10 8 5 4 3 4 4 4 3 2 7 6 6 6 6 7 9 8 8 8 9 10
2 3 3 5 2 3 18 6 4 4 15 2 10 11 34 29 24 23 21 17 16 13 12 14 13 12 10 9 8 5 5 4 3 3 3 2 1 1 3 3 9 8 7 7 8 8 8 9 10
2 4 8 13 12 4 12 12 11 6 8 5 13 23 36 29 24 25 22 19 18 15 13 13 13 13 12 10 9 9 6 4 1 2 1 3 3 3 7 2 11 12 10 8 9 9 9 9 10
2 3 9 10 19 4 12 12 6 14 3 9 28 39 33 29 24 22 18 15 15 11 13 13 13 12 12 13 10 8 5 2 1 6 4 5 8 7 6 7 1 13 13 12 11 10 10 10 9
1 1 5 14 25 3 6 6 7 3 0 9 29 41 31 27 23 24 21 16 13 14 12 11 11 12 13 10 7 5 3 2 3 6 8 6 9 14 7 3 4 7 13 14 13 12 12 11 9
6 8 4 12 20 15 17 11 6 11 17 22 35 32 30 26 23 19 17 17 13 13 11 12 13 14 11 10 6 2 4 4 6 7 7 6 8 8 7 5 3 7 12 15 15 15 15 14 11
6 7 9 13 17 11 9 7 4 8 15 23 34 30 30 26 23 23 26 29 24 16 12 12 14 11 9 9 7 5 5 5 5 6 6 4 7 7 6 4 2 5 8 13 16 15 17 13 10
7 10 9 9 7 3 7 5 4 18 20 29 27 28 28 25 24 26 27 26 18 18 15 15 13 13 8 10 8 6 6 8 7 6 8 10 7 6 6 5 0 5 7 10 13 16 18 15 10
5 1 3 3 7 4 5 1 7 18 21 23 24 26 27 26 26 23 23 19 16 16 18 15 17 16 13 12 10 9 11 10 8 7 7 4 5 6 5 5 2 4 8 11 12 14 18 16 11
4 2 2 3 3 1 4 3 13 21 20 21 24 26 26 27 28 25 24 21 16 18 18 18 20 20 17 14 11 11 9 9 5 4 3 4 3 4 4 7 4 3 9 12 12 13 17 16 13
2 2 2 1 2 1 2 5 13 23 21 22 23 25 27 27 30 25 23 23 18 21 23 17 18 20 15 13 13 13 12 10 7 4 3 3 1 2 4 6 4 3 10 13 13 14 15 14 14
9 9 5 2 1 2 2 4 17 23 20 18 23 28 29 30 28 24 18 16 16 20 22 21 20 21 19 16 16 14 12 8 7 5 4 4 3 3 3 3 3 0 9 11 13 14 15 14 13
7 4 3 4 2 4 1 9 15 21 26 26 26 27 30 31 29 29 27 26 25 23 22 22 21 23 22 17 14 15 11 9 11 9 6 5 5 4 3 3 1 1 9 14 14 16 15 13 12
5 6 3 0 4 5 5 4 6 15 21 20 23 29 30 31 30 27 25 23 25 27 28 26 23 22 18 16 14 14 12 13 10 7 5 5 7 6 4 4 3 3 9 12 13 15 15 13 11
5 16 9 4 2 3 2 4 6 8 16 21 26 30 33 32 35 31 26 25 24 24 23 26 23 20 19 17 18 17 15 15 14 12 9 7 8 8 7 5 4 5 7 13 14 15 15 13 10
7 11 12 4 2 2 5 1 5 4 9 13 27 32 38 38 32 34 28 27 27 25 24 23 20 18 18 19 20 18 18 13 10 9 10 6 11 11 10 9 7 3 8 11 16 18 18 14 12
14 11 8 6 5 4 4 2 5 4 8 3 15 30 34 39 38 29 31 26 29 30 29 26 21 19 21 20 18 21 20 16 17 15 13 10 8 13 13 11 10 8 9 13 13 16 19 17 16
8 7 3 2 2 5 5 2 8 6 6 9 18 33 35 37 34 33 29 30 32 32 30 26 24 23 22 21 21 20 21 20 18 16 13 12 10 10 10 13 13 11 11 13 12 14 17 18 18
7 6 4 4 4 4 5 5 5 5 14 23 25 32 36 35 30 34 29 30 31 33 34 31 28 25 22 21 21 22 22 22 21 18 17 16 13 11 10 10 12 14 13 12 14 14 15 17 17
6 5 1 6 0 1 3 6 8 3 6 6 10 23 27 27 27 37 35 24 20 21 30 35 33 29 26 23 21 21 22 22 21 20 20 18 16 15 14 11 14 11 14 14 13 13 12 15 16
6 7 1 3 2 4 4 5 6 4 5 4 5 14 18 18 24 29 31 29 17 14 19 25 31 36 30 26 23 21 20 20 20 21 22 22 19 18 16 17 15 14 13 15 17 16 14 14 15
2 3 5 5 3 5 2 6 7 8 6 7 8 14 21 15 21 28 31 18 14 11 18 23 25 28 32 31 25 23 20 20 20 20 20 19 20 18 18 17 17 18 17 15 18 18 17 17 17
4 8 6 5 5 3 1 6 1 5 5 10 11 9 14 23 20 21 15 13 15 12 14 20 24 25 21 27 27 25 21 20 20 20 18 18 20 20 20 20 20 17 17 17 15 18 19 21 21
Wind_Direction
214 255 308 326 27 74 9 327 91 95 122 160 161 167 126 51 88 169 142 154 159 159 154 151 140 125 122 120 119 121 118 119 122 129 125 119 119 121 118 124 126 124 118 119 121 120 117 123 124
241 264 291 287 72 71 315 299 142 173 139 125 101 106 61 82 111 138 147 149 151 152 151 151 145 136 130 124 118 116 118 122 121 126 123 122 119 121 118 116 120 120 118 118 122 120 126 132 134
255 302 299 100 102 152 158 215 151 78 140 133 107 91 82 109 140 137 143 142 145 144 148 151 147 144 138 128 122 117 111 121 125 125 124 123 121 123 123 117 117 117 120 119 121 121 125 136 139
1 354 276 72 164 123 159 167 149 137 134 111 119 78 75 128 137 146 146 145 146 147 150 151 154 149 142 133 126 120 109 111 124 122 120 123 124 123 126 129 135 136 137 134 129 126 131 133 139
322 305 342 334 230 76 127 145 149 139 100 96 105 101 116 148 146 151 149 143 143 151 157 158 157 155 148 137 129 122 112 113 121 125 125 126 127 126 123 130 137 147 141 136 132 134 141 138 141
324 346 38 29 63 77 126 148 153 112 120 124 101 115 119 147 154 148 155 154 151 152 162 161 160 157 153 142 132 125 117 116 125 132 134 136 132 123 116 135 147 149 151 150 140 149 152 157 150
238 55 345 318 24 104 140 166 148 132 130 114 140 91 138 152 154 144 138 149 162 168 171 167 169 162 159 149 139 132 127 123 125 129 134 136 140 142 140 156 161 165 161 154 144 150 167 166 162
100 103 21 345 320 47 143 130 135 115 81 142 151 163 167 156 159 153 145 147 150 151 161 171 167 167 162 156 148 146 135 125 122 136 122 85 154 170 183 176 183 180 178 177 166 156 166 182 182
298 51 21 7 308 69 129 120 104 96 136 143 192 169 160 155 154 149 147 145 147 149 149 160 160 159 157 159 153 156 142 146 138 154 137 115 74 216 246 237 198 192 189 184 187 175 171 189 198
74 58 0 312 9 180 152 129 136 122 133 67 120 154 156 159 159 157 154 147 145 142 149 148 150 155 158 158 150 145 143 158 125 63 346 230 59 7 225 282 201 201 198 198 190 191 189 194 196
62 76 350 322 327 200 148 117 122 129 210 193 153 153 157 166 165 164 162 152 154 156 155 141 144 155 152 149 146 146 146 177 230 355 360 340 341 329 336 241 129 204 211 206 205 193 195 197 204
338 41 69 322 327 244 116 117 100 0 92 156 154 154 158 166 167 172 162 153 174 172 167 168 159 157 163 169 169 186 235 254 293 300 329 331 338 1 1 322 203 197 206 213 208 206 201 194 198
19 10 34 342 25 60 105 95 102 99 129 140 153 158 168 168 164 166 172 166 152 189 185 184 177 181 183 184 178 227 222 247 243 270 318 308 335 0 3 350 226 200 210 212 214 217 208 199 200
8 9 344 348 331 10 95 102 77 130 146 150 160 174 176 171 171 161 147 150 181 196 197 199 201 200 203 211 202 187 241 275 293 315 321 333 351 346 10 11 215 192 197 211 214 210 206 203 213
96 352 352 323 2 97 13 20 90 158 156 156 175 184 190 191 186 181 174 188 207 200 212 226 215 205 219 223 210 208 254 289 297 319 335 326 329 354 2 358 114 167 168 184 195 200 196 198 200
49 287 334 58 3 42 47 111 156 170 163 173 186 196 198 203 198 200 202 208 210 214 222 233 219 211 222 230 235 247 275 272 281 301 321 337 352 355 33 20 88 159 180 177 177 188 192 199 201
170 252 206 328 73 99 80 121 190 183 185 185 191 202 205 212 212 216 214 222 233 218 220 228 224 221 229 244 223 228 224 240 249 273 314 12 9 357 44 37 56 146 183 185 182 186 195 204 211
179 104 262 254 252 66 57 206 181 193 199 197 196 201 208 217 216 215 223 229 238 228 226 233 226 215 218 195 186 197 213 226 233 251 246 317 325 41 36 29 41 132 179 180 181 186 193 197 198
114 132 208 231 14 242 145 213 184 197 206 208 210 204 211 218 218 222 218 219 228 222 224 229 224 204 202 200 198 206 214 232 247 250 258 265 252 284 353 29 23 347 187 187 188 187 186 192 201
133 157 243 164 202 160 167 184 184 191 209 207 209 216 215 223 232 227 223 227 230 234 234 225 222 207 212 217 208 212 218 244 267 244 232 246 242 262 303 349 317 318 182 181 186 196 197 192 200
205 209 176 67 101 64 40 293 211 208 219 220 222 220 226 228 231 233 236 231 227 231 231 223 222 213 216 208 199 208 230 242 250 242 258 263 241 249 262 315 327 269 201 190 187 189 191 193 206
218 217 171 115 43 185 175 248 219 196 211 218 221 222 230 234 236 238 236 231 223 227 220 223 223 223 222 221 217 224 233 249 252 265 269 260 252 253 253 250 297 240 205 198 195 203 207 219 220
247 176 155 95 335 357 342 107 263 154 218 218 213 213 226 232 236 234 232 227 229 228 224 222 227 226 227 229 226 230 236 240 253 255 263 262 247 247 244 240 236 252 215 200 205 211 218 230 231
112 90 51 46 39 329 251 196 290 191 223 224 212 212 214 226 231 235 234 229 226 226 222 219 227 234 226 224 229 230 237 248 252 254 259 258 257 239 246 245 249 253 240 221 224 226 225 228 244
77 79 81 336 188 233 212 82 241 257 236 220 210 211 212 222 218 227 232 225 223 225 224 221 227 231 226 226 230 235 240 245 253 263 256 261 259 251 257 248 254 264 257 231 227 232 239 244 248
185 162 166 202 195 249 206 235 245 238 301 257 226 201 204 214 213 213 222 226 230 230 229 226 228 234 227 229 236 239 243 248 253 258 260 264 265 273 276 263 259 261 267 244 238 244 255 257 257
191 205 159 108 117 311 268 290 295 299 346 354 158 168 186 195 210 201 210 213 223 236 244 237 235 238 235 237 243 244 244 247 252 260 260 264 263 264 271 274 262 278 262 256 256 257 261 264 262
172 160 136 11 123 294 286 292 238 265 271 280 196 185 164 162 183 189 200 206 217 254 259 255 243 245 243 241 244 250 252 252 254 258 261 263 269 269 266 260 269 275 271 271 260 254 258 266 271
88 282 48 111 133 177 223 260 216 210 209 230 218 205 188 165 177 179 193 207 234 280 259 251 246 249 243 245 245 248 247 252 255 258 264 268 270 269 263 262 265 259 267 271 272 273 274 281 286
196 187 149 126 236 246 173 277 290 162 213 238 236 196 202 190 186 184 196 204 214 290 264 242 243 243 240 247 248 244 250 252 258 259 265 268 270 270 269 269 270 272 267 268 275 263 264 262 268
Height
1517 1517 1516 1516 1522 1519 1527 1520 1512 1517 1519 1520 1524 1525 1530 1532 1534 1543 1538 1541 1543 1546 1548 1550 1552 1553 1553 1554 1555 1556 1556 1556 1556 1557 1558 1558 1559 1560 1560 1561 1561 1562 1562 1563 1565 1565 1565 1565 1566
1518 1518 1518 1517 1526 1534 1531 1514 1517 1514 1516 1520 1526 1529 1531 1536 1534 1537 1540 1543 1545 1547 1549 1551 1552 1554 1554 1555 1556 1557 1557 1557 1558 1558 1558 1559 1559 1561 1562 1563 1564 1564 1565 1565 1566 1567 1568 1567 1568
1518 1518 1519 1518 1520 1529 1530 1515 1515 1517 1520 1521 1526 1530 1534 1536 1537 1538 1541 1543 1546 1548 1551 1552 1553 1554 1555 1556 1557 1558 1558 1559 1559 1560 1560 1560 1560 1561 1562 1565 1566 1566 1567 1567 1567 1568 1569 1570 1570
1517 1519 1519 1522 1521 1512 1513 1511 1514 1516 1521 1522 1524 1532 1537 1538 1539 1540 1542 1545 1548 1550 1551 1553 1555 1556 1556 1557 1559 1559 1560 1560 1560 1561 1562 1562 1562 1562 1563 1564 1566 1567 1567 1568 1568 1570 1570 1571 1572
1518 1518 1521 1516 1514 1508 1508 1511 1515 1517 1521 1524 1525 1534 1538 1541 1541 1542 1544 1547 1549 1551 1552 1554 1556 1556 1557 1558 1560 1561 1561 1562 1562 1563 1563 1563 1563 1564 1564 1565 1566 1566 1569 1568 1569 1570 1572 1573 1574
1519 1519 1523 1523 1515 1510 1512 1514 1516 1519 1522 1526 1528 1532 1540 1542 1543 1544 1546 1548 1551 1553 1554 1555 1556 1557 1558 1559 1561 1562 1562 1563 1563 1563 1563 1563 1564 1564 1565 1566 1567 1567 1568 1569 1570 1571 1572 1573 1575
1520 1521 1527 1523 1517 1515 1513 1515 1517 1519 1524 1527 1529 1535 1540 1543 1545 1545 1547 1549 1551 1553 1554 1555 1557 1557 1559 1561 1562 1562 1562 1563 1564 1565 1564 1564 1565 1564 1565 1566 1567 1568 1569 1570 1570 1572 1572 1574 1576
1520 1521 1523 1517 1522 1519 1512 1516 1519 1521 1525 1527 1530 1533 1539 1541 1545 1547 1548 1550 1552 1554 1555 1557 1557 1560 1561 1562 1562 1563 1563 1563 1564 1565 1565 1565 1565 1565 1566 1566 1567 1568 1569 1571 1571 1572 1573 1574 1576
1521 1525 1531 1523 1519 1516 1513 1516 1521 1523 1525 1529 1530 1530 1536 1540 1544 1547 1549 1551 1553 1555 1556 1558 1559 1561 1563 1562 1562 1563 1563 1564 1565 1565 1566 1567 1565 1566 1565 1566 1566 1568 1569 1571 1572 1573 1574 1574 1576
1521 1531 1525 1519 1518 1515 1513 1514 1518 1524 1527 1530 1530 1533 1538 1541 1544 1547 1549 1551 1554 1556 1558 1559 1560 1562 1562 1562 1563 1564 1564 1565 1565 1566 1567 1566 1565 1565 1565 1565 1566 1567 1569 1570 1572 1573 1574 1574 1576
1523 1528 1523 1518 1517 1516 1515 1517 1518 1523 1527 1526 1526 1531 1538 1542 1545 1548 1552 1553 1555 1559 1561 1561 1562 1562 1563 1563 1564 1565 1566 1567 1567 1567 1567 1565 1565 1565 1564 1564 1563 1566 1567 1569 1570 1572 1574 1575 1576
1525 1524 1525 1524 1516 1515 1517 1518 1522 1525 1525 1524 1530 1535 1540 1543 1546 1549 1552 1554 1554 1560 1562 1563 1563 1563 1564 1564 1565 1566 1568 1568 1567 1567 1566 1565 1564 1563 1563 1563 1563 1564 1564 1566 1569 1571 1573 1574 1576
1525 1524 1524 1524 1519 1519 1517 1520 1524 1529 1528 1531 1535 1540 1541 1545 1548 1551 1554 1556 1555 1561 1562 1563 1562 1564 1564 1565 1566 1567 1567 1567 1567 1566 1566 1565 1564 1563 1562 1561 1562 1561 1562 1564 1566 1569 1572 1575 1577
1529 1526 1525 1522 1524 1525 1524 1526 1527 1534 1532 1535 1539 1541 1544 1548 1550 1553 1553 1557 1555 1558 1561 1562 1563 1563 1564 1564 1566 1566 1566 1567 1567 1566 1565 1564 1563 1563 1562 1561 1560 1560 1560 1561 1564 1567 1571 1574 1576
1529 1527 1527 1528 1529 1529 1528 1530 1533 1534 1535 1538 1542 1545 1547 1550 1552 1553 1555 1555 1557 1559 1561 1561 1562 1563 1563 1564 1565 1566 1566 1566 1566 1565 1564 1562 1563 1563 1562 1560 1559 1557 1558 1559 1562 1565 1569 1572 1575
1535 1539 1544 1533 1530 1530 1530 1543 1537 1538 1538 1539 1542 1545 1548 1550 1552 1554 1554 1557 1559 1560 1560 1561 1563 1562 1563 1563 1564 1565 1566 1566 1566 1565 1563 1562 1562 1562 1561 1560 1558 1557 1558 1559 1561 1564 1567 1572 1574
1539 1546 1543 1534 1528 1529 1532 1541 1537 1538 1540 1539 1541 1543 1547 1549 1551 1552 1554 1556 1557 1557 1559 1560 1561 1562 1563 1564 1564 1565 1565 1566 1566 1565 1564 1562 1562 1562 1561 1559 1558 1557 1558 1560 1561 1563 1567 1570 1572
1539 1541 1534 1536 1530 1527 1532 1535 1536 1537 1538 1537 1539 1541 1544 1545 1545 1548 1552 1554 1555 1556 1558 1559 1559 1561 1563 1564 1563 1564 1564 1565 1566 1565 1564 1563 1562 1562 1561 1559 1558 1557 1557 1559 1561 1563 1566 1568 1570
1526 1530 1530 1526 1527 1528 1531 1531 1533 1535 1538 1536 1537 1538 1540 1542 1541 1546 1549 1550 1552 1554 1555 1557 1558 1560 1562 1562 1562 1563 1563 1564 1564 1564 1564 1563 1563 1563 1561 1560 1559 1558 1558 1559 1561 1563 1565 1568 1569
1523 1526 1520 1524 1523 1525 1527 1530 1528 1530 1529 1530 1533 1536 1535 1537 1539 1542 1545 1547 1548 1550 1553 1555 1557 1558 1560 1561 1561 1562 1563 1563 1562 1562 1562 1563 1563 1563 1562 1561 1560 1559 1559 1560 1562 1564 1566 1567 1569
1526 1523 1522 1522 1523 1528 1534 1539 1533 1527 1529 1530 1531 1532 1532 1533 1535 1538 1542 1543 1545 1546 1549 1552 1554 1557 1559 1561 1561 1561 1561 1561 1561 1561 1561 1562 1563 1563 1562 1562 1561 1560 1560 1560 1561 1564 1566 1567 1569
1533 1512 1516 1526 1536 1545 1535 1554 1532 1525 1525 1526 1526 1528 1528 1529 1530 1534 1538 1541 1542 1543 1546 1549 1552 1554 1556 1559 1560 1559 1560 1559 1560 1561 1560 1561 1561 1561 1561 1561 1561 1560 1560 1560 1561 1564 1565 1567 1568
1514 1506 1518 1531 1543 1541 1537 1546 1527 1522 1523 1516 1517 1521 1524 1524 1526 1529 1533 1536 1538 1541 1544 1547 1550 1552 1554 1556 1557 1557 1558 1558 1559 1559 1559 1559 1559 1559 1560 1560 1559 1559 1559 1559 1560 1561 1564 1566 1566
1508 1518 1533 1543 1556 1567 1547 1547 1531 1524 1512 1508 1510 1512 1515 1519 1523 1527 1530 1533 1535 1539 1543 1547 1549 1549 1552 1553 1554 1555 1556 1557 1557 1558 1558 1559 1559 1558 1559 1559 1559 1559 1558 1559 1559 1560 1561 1561 1562
1513 1531 1568 1574 1576 1563 1544 1546 1527 1505 1500 1500 1500 1501 1506 1511 1518 1523 1526 1529 1532 1536 1540 1544 1546 1548 1550 1551 1551 1553 1553 1554 1555 1556 1557 1557 1558 1557 1558 1558 1558 1558 1558 1558 1559 1560 1561 1560 1560
1520 1527 1545 1544 1564 1550 1537 1537 1513 1497 1493 1488 1490 1493 1499 1505 1511 1518 1523 1526 1530 1534 1537 1542 1543 1545 1548 1549 1549 1551 1552 1552 1553 1554 1555 1555 1556 1556 1557 1557 1556 1557 1558 1558 1558 1559 1560 1560 1560
1518 1526 1519 1542 1551 1551 1541 1523 1501 1492 1491 1492 1493 1494 1496 1501 1506 1510 1517 1523 1528 1532 1534 1537 1540 1542 1545 1547 1548 1548 1549 1550 1550 1551 1552 1552 1553 1554 1555 1555 1556 1556 1556 1557 1557 1557 1557 1556 1555
1502 1508 1530 1535 1548 1549 1545 1538 1527 1498 1495 1495 1496 1498 1502 1503 1507 1510 1515 1521 1525 1527 1529 1531 1534 1537 1541 1544 1546 1546 1546 1547 1549 1549 1549 1550 1551 1551 1552 1554 1555 1555 1554 1553 1553 1552 1552 1553 1553
1512 1518 1522 1527 1537 1550 1552 1538 1496 1492 1492 1492 1493 1496 1501 1504 1505 1510 1513 1518 1521 1525 1525 1526 1529 1532 1536 1540 1543 1544 1544 1545 1547 1547 1547 1547 1548 1549 1550 1550 1550 1550 1551 1553 1553 1553 1554 1553 1552
1499 1500 1510 1534 1536 1538 1535 1526 1484 1488 1490 1492 1490 1495 1500 1503 1506 1510 1513 1518 1521 1523 1521 1522 1526 1528 1532 1536 1541 1541 1542 1543 1543 1544 1545 1546 1545 1546 1547 1545 1546 1548 1548 1549 1549 1549 1548 1546 1546